FW4184 Weather Reports


time (UTC)temp
C
wind
direction
speed
KPH
gust
KPH
rain 1hr
cm
rain 24hr
cm
rain mn
cm
humidity
%
barometer
mb
20260504081544 7 38 0.0 3.2 0.00 0.00 0.00 88 1015.1
20260504081030 7 38 0.0 3.2 0.00 0.00 0.00 89 1015.2
20260504080530 7 32 0.0 0.0 0.00 0.00 0.00 89 1015.2
20260504050513 6 30 0.0 0.0 0.00 0.00 0.00 87 1015.2
20260504050017 6 30 0.0 0.0 0.00 0.00 0.00 86 1015.4
20260504045511 6 30 0.0 0.0 0.00 0.00 0.00 85 1015.2
20260504045011 6 30 0.0 0.0 0.00 0.00 0.00 85 1015.0
20260504044518 6 30 0.0 0.0 0.00 0.00 0.00 86 1015.2
20260504044012 6 30 0.0 0.0 0.00 0.00 0.00 86 1015.1
20260504043510 6 30 0.0 0.0 0.00 0.00 0.00 85 1015.0
20260504043011 6 30 0.0 0.0 0.00 0.00 0.00 86 1015.1
20260504042508 6 30 0.0 0.0 0.00 0.00 0.00 86 1015.1
20260504042009 6 30 0.0 0.0 0.00 0.00 0.00 84 1015.1
20260504041506 6 30 0.0 0.0 0.00 0.00 0.00 85 1015.1
20260504041005 6 30 0.0 0.0 0.00 0.00 0.00 84 1015.3
20260504040508 5 30 0.0 1.6 0.00 0.00 0.00 84 1015.2
20260504040003 5 30 0.0 1.6 0.00 0.00 0.00 84 1015.2
20260504035503 5 30 0.0 3.2 0.00 0.00 0.00 84 1015.4
20260504035004 5 30 0.0 3.2 0.00 0.00 0.00 84 1015.4
20260504034502 5 30 0.0 0.0 0.00 0.00 0.00 83 1015.4
20260504034003 5 30 0.0 0.0 0.00 0.00 0.00 82 1015.4
20260504033501 5 30 0.0 1.6 0.00 0.00 0.00 81 1015.4
20260504033002 5 30 0.0 3.2 0.00 0.00 0.00 81 1015.3
20260504032501 6 30 0.0 1.6 0.00 0.00 0.00 80 1015.5
20260504032100 6 30 0.0 0.0 0.00 0.00 0.00 80 1015.6
20260504032001 6 30 0.0 0.0 0.00 0.00 0.00 81 1015.6
20260504031603 6 30 0.0 0.0 0.00 0.00 0.00 81 1015.6
20260504031503 6 30 0.0 0.0 0.00 0.00 0.00 81 1015.7
20260504031101 6 30 0.0 0.0 0.00 0.00 0.00 80 1015.6
20260504030600 6 30 0.0 1.6 0.00 0.00 0.00 79 1015.5
20260504030059 6 30 0.0 1.6 0.00 0.00 0.00 82 1015.5
20260504025559 6 30 0.0 0.0 0.00 0.00 0.00 82 1015.5
20260504025059 6 30 0.0 0.0 0.00 0.00 0.00 82 1015.2
20260504024600 6 30 0.0 3.2 0.00 0.00 0.00 81 1015.2
20260504024059 6 30 0.0 3.2 0.00 0.00 0.00 81 1015.2
20260504023559 6 30 0.0 1.6 0.00 0.00 0.00 81 1015.3
20260504023058 6 30 0.0 4.8 0.00 0.00 0.00 82 1015.2
20260504022558 6 30 1.6 4.8 0.00 0.00 0.00 80 1015.2
20260504022056 6 355 0.0 0.0 0.00 0.00 0.00 78 1015.3
20260504021559 6 342 0.0 0.0 0.00 0.00 0.00 78 1015.3
20260504021056 6 338 0.0 0.0 0.00 0.00 0.00 77 1015.2
20260504020556 6 346 0.0 0.0 0.00 0.00 0.00 77 1015.0
20260504020132 6 346 0.0 0.0 0.00 0.00 0.00 76 1015.0
20260504015556 6 346 0.0 0.0 0.00 0.00 0.00 75 1015.0
20260504015056 6 24 0.0 1.6 0.00 0.00 0.00 76 1014.9
20260504014604 6 24 0.0 4.8 0.00 0.00 0.00 77 1014.9
20260504014055 6 12 1.6 4.8 0.00 0.00 0.00 76 1015.0
20260504013554 6 5 0.0 0.0 0.00 0.00 0.00 74 1014.9
20260504013116 7 355 0.0 0.0 0.00 0.00 0.00 74 1014.7
20260504012555 7 355 0.0 0.0 0.00 0.00 0.00 73 1014.7
20260504012055 7 355 0.0 0.0 0.00 0.00 0.00 73 1014.7
20260504011553 7 355 0.0 0.0 0.00 0.00 0.00 72 1014.7
20260504011052 7 355 0.0 3.2 0.00 0.00 0.00 71 1014.6
20260504010552 7 10 0.0 3.2 0.00 0.00 0.00 72 1014.5
20260504010053 8 346 0.0 0.0 0.00 0.00 0.00 71 1014.5
20260504005552 8 345 0.0 0.0 0.00 0.00 0.00 70 1014.5
20260504005053 8 345 0.0 0.0 0.00 0.00 0.00 68 1014.5
20260504004623 8 344 0.0 0.0 0.00 0.00 0.00 67 1014.6
20260504004053 9 344 0.0 0.0 0.00 0.00 0.00 66 1014.6
20260504003552 9 344 0.0 0.0 0.00 0.00 0.00 63 1014.4
20260504003058 9 344 0.0 0.0 0.00 0.00 0.00 64 1014.5
20260504002551 10 341 0.0 0.0 0.00 0.00 0.00 63 1014.5
20260504002052 10 341 0.0 0.0 0.00 0.00 0.00 60 1014.3
20260504001619 10 341 0.0 0.0 0.00 0.00 0.00 59 1014.3
20260504001051 11 341 0.0 0.0 0.00 0.00 0.00 58 1014.4
20260504000551 11 341 0.0 0.0 0.00 0.00 0.00 57 1014.3
20260504000101 11 341 0.0 0.0 0.00 0.00 0.00 55 1014.4
20260503235550 12 314 0.0 0.0 0.00 0.00 0.00 55 1014.4
20260503235050 12 314 0.0 0.0 0.00 0.00 0.00 53 1014.5
20260503234553 13 314 0.0 0.0 0.00 0.00 0.00 51 1014.5
20260503234050 13 314 0.0 0.0 0.00 0.00 0.00 50 1014.4
20260503233550 14 314 0.0 0.0 0.00 0.00 0.00 48 1014.3
20260503233050 15 314 0.0 0.0 0.00 0.00 0.00 44 1014.3
20260503232549 16 314 0.0 4.8 0.00 0.00 0.00 40 1014.3
20260503232048 16 314 0.0 6.4 0.00 0.00 0.00 37 1014.3
20260503231548 16 331 1.6 6.4 0.00 0.00 0.00 41 1014.2
20260503231048 16 182 0.0 3.2 0.00 0.00 0.00 41 1014.1
20260503230547 16 196 0.0 1.6 0.00 0.00 0.00 39 1014.1
20260503230108 17 305 0.0 3.2 0.00 0.00 0.00 33 1014.2
20260503224544 17 229 3.2 8.0 0.00 0.00 0.00 31 1014.1
20260503224044 17 198 1.6 16.1 0.00 0.00 0.00 31 1014.1
20260503223544 17 290 6.4 12.9 0.00 0.00 0.00 29 1014.1
20260503223043 17 190 0.0 12.9 0.00 0.00 0.00 35 1014.2
20260503222542 18 304 1.6 12.9 0.00 0.00 0.00 31 1014.2
20260503222042 18 292 1.6 6.4 0.00 0.00 0.00 30 1014.1
20260503221543 18 254 3.2 14.5 0.00 0.00 0.00 33 1014.2
20260503221042 17 296 4.8 14.5 0.00 0.00 0.00 31 1014.2
20260503220542 18 171 0.0 6.4 0.00 0.00 0.00 32 1014.2
20260503220047 17 285 0.0 12.9 0.00 0.00 0.00 33 1014.2
20260503215542 17 313 3.2 14.5 0.00 0.00 0.00 30 1014.3
20260503215038 17 313 1.6 14.5 0.00 0.00 0.00 32 1014.3
20260503214538 17 274 4.8 12.9 0.00 0.00 0.00 31 1014.2
20260503214040 17 279 0.0 19.3 0.00 0.00 0.00 35 1014.2
20260503213537 17 280 9.7 19.3 0.00 0.00 0.00 30 1014.3
20260503213036 18 292 1.6 11.3 0.00 0.00 0.00 33 1014.3
20260503212538 17 256 0.0 17.7 0.00 0.00 0.00 32 1014.3
20260503212035 17 261 6.4 22.5 0.00 0.00 0.00 33 1014.3
20260503211535 17 303 9.7 22.5 0.00 0.00 0.00 31 1014.3
20260503211033 17 313 4.8 12.9 0.00 0.00 0.00 33 1014.3
20260503210532 17 277 4.8 14.5 0.00 0.00 0.00 31 1014.3
20260503210032 17 315 1.6 19.3 0.00 0.00 0.00 33 1014.5
20260503205535 17 36 11.3 22.5 0.00 0.00 0.00 30 1014.6
20260503205032 17 289 9.7 22.5 0.00 0.00 0.00 30 1014.5
20260503204530 17 148 1.6 14.5 0.00 0.00 0.00 34 1014.4
20260503204031 17 284 3.2 17.7 0.00 0.00 0.00 33 1014.6
20260503203530 17 313 4.8 22.5 0.00 0.00 0.00 32 1014.6
20260503203044 17 203 6.4 22.5 0.00 0.00 0.00 34 1014.7
20260503202527 17 318 4.8 20.9 0.00 0.00 0.00 36 1014.8
20260503202027 16 17 4.8 20.9 0.00 0.00 0.00 33 1014.9
20260503201532 16 275 4.8 22.5 0.00 0.00 0.00 33 1014.9
20260503201029 17 309 9.7 22.5 0.00 0.00 0.00 32 1014.9
20260503200528 17 17 0.0 20.9 0.00 0.00 0.00 33 1015.0
20260503200024 17 294 8.0 20.9 0.00 0.00 0.00 35 1015.0
20260503195523 17 228 3.2 14.5 0.00 0.00 0.00 35 1015.1
20260503195022 16 169 3.2 19.3 0.00 0.00 0.00 36 1015.1
20260503194536 17 318 9.7 19.3 0.00 0.00 0.00 34 1015.2
20260503194022 16 257 1.6 19.3 0.00 0.00 0.00 36 1015.3
20260503193521 16 104 11.3 27.4 0.00 0.00 0.00 38 1015.3
20260503193020 16 301 9.7 29.0 0.00 0.00 0.00 36 1015.5
20260503192520 16 281 12.9 29.0 0.00 0.00 0.00 34 1015.6
20260503192018 16 360 6.4 16.1 0.00 0.00 0.00 35 1015.6
20260503191518 16 11 1.6 22.5 0.00 0.00 0.00 36 1015.7
20260503191017 16 325 12.9 22.5 0.00 0.00 0.00 35 1016.1
20260503190516 16 293 1.6 22.5 0.00 0.00 0.00 38 1016.0
20260503190021 15 189 6.4 22.5 0.00 0.00 0.00 37 1016.1
20260503185520 15 281 9.7 19.3 0.00 0.00 0.00 39 1016.2
20260503185016 15 313 6.4 19.3 0.00 0.00 0.00 36 1016.2
20260503184522 16 304 11.3 20.9 0.00 0.00 0.00 36 1016.4
20260503184013 16 283 0.0 19.3 0.00 0.00 0.00 42 1016.4
20260503183511 15 325 8.0 19.3 0.00 0.00 0.00 39 1016.4
20260503183010 15 261 4.8 16.1 0.00 0.00 0.00 41 1016.4
20260503182509 15 247 3.2 16.1 0.00 0.00 0.00 40 1016.3
20260503182007 15 128 4.8 16.1 0.00 0.00 0.00 37 1016.5
20260503181507 15 321 1.6 12.9 0.00 0.00 0.00 39 1016.5
20260503181007 14 350 3.2 24.1 0.00 0.00 0.00 41 1016.7
20260503180506 14 296 14.5 24.1 0.00 0.00 0.00 37 1016.9
20260503180005 15 338 9.7 17.7 0.00 0.00 0.00 41 1016.8
20260503175505 14 355 4.8 20.9 0.00 0.00 0.00 41 1016.9
20260503175005 13 34 4.8 20.9 0.00 0.00 0.00 42 1016.9
20260503174604 14 348 9.7 19.3 0.00 0.00 0.00 39 1016.9
20260503174004 15 19 11.3 17.7 0.00 0.00 0.00 42 1016.9
20260503173502 14 19 6.4 12.9 0.00 0.00 0.00 44 1016.9
20260503173002 14 90 1.6 9.7 0.00 0.00 0.00 39 1017.1
20260503172558 13 140 0.0 14.5 0.00 0.00 0.00 44 1017.2
20260503172057 13 284 3.2 19.3 0.00 0.00 0.00 42 1017.2
20260503171603 13 26 11.3 19.3 0.00 0.00 0.00 41 1017.3
20260503171057 13 290 1.6 16.1 0.00 0.00 0.00 43 1017.4
20260503170556 13 263 1.6 19.3 0.00 0.00 0.00 42 1017.5
20260503150531 11 46 12.9 25.7 0.00 0.00 0.00 49 1018.6
20260503131005 8 295 11.3 19.3 0.00 0.00 0.00 51 1018.3
20260503130508 8 302 6.4 19.3 0.00 0.00 0.00 54 1018.3
20260503110533 6 360 6.4 22.5 0.00 0.00 0.00 54 1017.1